Location: Cleveland
(41.4990°N, 81.6960°W)
Time: 01:00:50
(UTC-04:00)

Tiangong - Visible Passes

Search period start: 22 September 2021 00:00
Search period end: 02 October 2021 00:00
Orbit: 380 x 385 km, 41.5° (Epoch: 21 September)

Date Brightness Start Highest point End Pass type
(mag) Time Alt. Az. Time Alt. Az. Time Alt. Az.
24 Sep 3.7 06:31:19 10° S 06:33:18 16° SSE 06:35:17 10° ESE visible
26 Sep 2.9 06:07:30 14° SSW 06:09:27 25° SSE 06:12:06 10° E visible
27 Sep 3.9 05:10:21 14° SE 05:10:21 14° SE 05:11:21 10° ESE visible
27 Sep 1.5 06:42:41 10° WSW 06:45:47 56° SSE 06:48:54 10° E visible
28 Sep 1.9 05:45:18 37° S 05:45:37 38° SSE 05:48:35 10° E visible
29 Sep 4.5 04:48:01 11° E 04:48:01 11° E 04:48:08 10° E visible
29 Sep 1.1 06:20:11 22° WSW 06:22:03 76° S 06:25:12 10° E visible
30 Sep 2.6 05:22:52 35° ESE 05:22:52 35° ESE 05:24:55 10° E visible
30 Sep 1.1 06:55:25 10° W 06:58:35 88° N 07:01:45 10° E visible
01 Oct 0.9 05:57:41 55° W 05:58:18 89° S 06:01:27 10° E visible
